DLH6924 OTHH-ZBAA

Flight info

Callsign DLH6924
Flight time N/A
Altitude 37000
Route KUPRO N300 LALDO A791 KATUS M316 GOKSO M561 ASVIB G665 PG J215 ATRIS G325 HANGU P500 PS G325 PURPA/K0883S1130 W112 BILDA W619 JSG V67 ALGOT W199 NIRUV B215 GODON W87 PARTU G212 TONOV V152 GUVRI W56 DUGEB
Aircraft A346/H-SDE2E3FGHIJ3J4J5M1RWXY/LB1D1

Departure

Time 2026-05-07 02:32
Airport Hamad International Airport (OTHH)

Arrival

Time N/A
Airport Beijing Capital International Airport (ZBAA)
Time Latitude Longitude Altitude Speed Heading
2026-05-07 02:31 25.36688 51.70878 3991 ft 235 kts 95°
2026-05-07 02:32 25.36379 51.72744 4006 ft 258 kts 99°
2026-05-07 02:32 25.35985 51.74713 4001 ft 264 kts 100°
2026-05-07 02:32 25.35575 51.76708 4003 ft 266 kts 99°
2026-05-07 02:32 25.35167 51.78701 4014 ft 265 kts 100°
2026-05-07 02:33 25.34770 51.80695 4007 ft 266 kts 100°
2026-05-07 02:33 25.34366 51.82704 4017 ft 267 kts 99°
2026-05-07 02:33 25.33969 51.84684 4014 ft 268 kts 99°
2026-05-07 02:33 25.33566 51.86712 4062 ft 273 kts 100°
2026-05-07 02:34 25.33158 51.88777 4585 ft 274 kts 101°
2026-05-07 02:34 25.32757 51.90825 5252 ft 271 kts 101°
2026-05-07 02:34 25.32346 51.92866 5830 ft 273 kts 101°
2026-05-07 02:34 25.31933 51.94923 6361 ft 275 kts 101°
2026-05-07 02:35 25.31521 51.96995 6907 ft 277 kts 101°
2026-05-07 02:35 25.31105 51.99083 7458 ft 279 kts 101°
2026-05-07 02:35 25.30682 52.01186 8010 ft 280 kts 101°
2026-05-07 02:35 25.30263 52.03264 8576 ft 281 kts 101°
2026-05-07 02:36 25.29835 52.05419 9141 ft 284 kts 101°
2026-05-07 02:36 25.29412 52.07534 9671 ft 287 kts 101°
2026-05-07 02:36 25.28928 52.09685 10186 ft 289 kts 105°
2026-05-07 02:36 25.28298 52.11818 10625 ft 297 kts 108°
2026-05-07 02:37 25.27604 52.14025 10870 ft 311 kts 108°
2026-05-07 02:37 25.26876 52.16329 11109 ft 324 kts 108°
2026-05-07 02:37 25.26113 52.18735 11354 ft 338 kts 108°
2026-05-07 02:37 25.25320 52.21243 11599 ft 352 kts 109°
2026-05-07 02:38 25.24509 52.23815 11831 ft 365 kts 109°
2026-05-07 02:38 25.23655 52.26517 12073 ft 378 kts 109°
2026-05-07 02:38 25.22779 52.29291 12534 ft 384 kts 109°
2026-05-07 02:38 25.21898 52.32079 13187 ft 385 kts 109°
2026-05-07 02:39 25.21013 52.34879 13784 ft 387 kts 109°
2026-05-07 02:39 25.20121 52.37697 14313 ft 390 kts 109°
2026-05-07 02:39 25.19219 52.40546 14808 ft 393 kts 109°
2026-05-07 02:39 25.18310 52.43414 15301 ft 397 kts 109°
2026-05-07 02:40 25.17390 52.46312 15740 ft 402 kts 109°
2026-05-07 02:40 25.16473 52.49205 16214 ft 406 kts 110°
2026-05-07 02:40 25.15536 52.52162 16705 ft 409 kts 110°
2026-05-07 02:40 25.14588 52.55146 17169 ft 414 kts 110°
2026-05-07 02:41 25.13566 52.58131 17633 ft 418 kts 113°
2026-05-07 02:41 25.12378 52.61075 18087 ft 421 kts 116°
2026-05-07 02:41 25.11072 52.63988 18481 ft 425 kts 117°
2026-05-07 02:41 25.09741 52.66923 18866 ft 429 kts 117°
2026-05-07 02:42 25.08395 52.69885 19250 ft 433 kts 117°
2026-05-07 02:42 25.07076 52.72843 19630 ft 437 kts 116°
2026-05-07 02:42 25.05890 52.75947 20011 ft 441 kts 112°
2026-05-07 02:42 25.04898 52.79173 20386 ft 446 kts 108°
2026-05-07 02:43 25.04091 52.82493 20778 ft 449 kts 105°
2026-05-07 02:43 25.03333 52.85853 21180 ft 452 kts 105°
2026-05-07 02:43 25.02578 52.89241 21551 ft 456 kts 105°
2026-05-07 02:43 25.01813 52.92659 21907 ft 460 kts 105°
2026-05-07 02:44 25.01038 52.96102 22265 ft 464 kts 105°
2026-05-07 02:44 25.00265 52.99520 22614 ft 467 kts 105°
2026-05-07 02:44 24.99470 53.03015 22965 ft 471 kts 105°
2026-05-07 02:44 24.98667 53.06539 23308 ft 474 kts 105°
2026-05-07 02:45 24.97855 53.10077 23604 ft 478 kts 105°
2026-05-07 02:45 24.97035 53.13641 23887 ft 481 kts 105°
2026-05-07 02:45 24.96207 53.17233 24185 ft 483 kts 105°
2026-05-07 02:45 24.95375 53.20843 24484 ft 486 kts 105°
2026-05-07 02:46 24.94539 53.24469 24771 ft 489 kts 105°
2026-05-07 02:46 24.93698 53.28115 25071 ft 491 kts 105°
2026-05-07 02:46 24.92865 53.31723 25387 ft 493 kts 106°
2026-05-07 02:46 24.92016 53.35393 25711 ft 494 kts 106°
2026-05-07 02:47 24.91161 53.39083 25998 ft 497 kts 106°
2026-05-07 02:47 24.90251 53.42767 26267 ft 499 kts 108°
2026-05-07 02:47 24.89256 53.46445 26534 ft 502 kts 108°
2026-05-07 02:47 24.88244 53.50139 26799 ft 504 kts 109°
2026-05-07 02:48 24.87219 53.53874 27064 ft 507 kts 109°
2026-05-07 02:48 24.86194 53.57606 27332 ft 510 kts 109°
2026-05-07 02:48 24.85168 53.61345 27611 ft 512 kts 109°
2026-05-07 02:48 24.84148 53.65064 27843 ft 515 kts 109°
2026-05-07 02:49 24.83112 53.68842 28177 ft 515 kts 109°
2026-05-07 02:49 24.82074 53.72624 28581 ft 515 kts 109°
2026-05-07 02:49 24.81037 53.76397 28955 ft 514 kts 109°
2026-05-07 02:49 24.79998 53.80172 29295 ft 514 kts 109°
2026-05-07 02:50 24.78960 53.83946 29643 ft 514 kts 109°
2026-05-07 02:50 24.77922 53.87708 29969 ft 515 kts 109°
2026-05-07 02:50 24.76942 53.91497 30239 ft 516 kts 105°
2026-05-07 02:50 24.76294 53.95394 30524 ft 518 kts 98°
2026-05-07 02:51 24.76041 53.99308 30817 ft 519 kts 92°
2026-05-07 02:51 24.76184 54.03258 31109 ft 519 kts 85°
2026-05-07 02:51 24.76729 54.07195 31382 ft 520 kts 78°
2026-05-07 02:51 24.77655 54.11045 31665 ft 520 kts 73°
2026-05-07 02:52 24.78749 54.14844 31959 ft 520 kts 72°
2026-05-07 02:52 24.79873 54.18624 32260 ft 519 kts 71°
2026-05-07 02:52 24.80997 54.22424 32542 ft 519 kts 72°
2026-05-07 02:52 24.82100 54.26213 32823 ft 519 kts 72°
2026-05-07 02:53 24.83190 54.30008 33109 ft 519 kts 72°
2026-05-07 02:53 24.84257 54.33754 33383 ft 519 kts 72°
2026-05-07 02:53 24.85333 54.37548 33676 ft 518 kts 72°
2026-05-07 02:53 24.86408 54.41343 33937 ft 518 kts 72°
2026-05-07 02:54 24.87479 54.45133 34181 ft 518 kts 72°
2026-05-07 02:54 24.88549 54.48926 34414 ft 517 kts 72°
2026-05-07 02:54 24.89619 54.52714 34657 ft 517 kts 72°
2026-05-07 02:54 24.90687 54.56498 34809 ft 517 kts 72°
2026-05-07 02:55 24.92778 54.64023 34815 ft 518 kts 75°
2026-05-07 02:55 24.93648 54.67877 34973 ft 518 kts 78°
2026-05-07 02:55 24.94400 54.71765 35235 ft 517 kts 78°
2026-05-07 02:56 24.95126 54.75653 35477 ft 517 kts 79°
2026-05-07 02:56 24.95849 54.79539 35647 ft 517 kts 78°
2026-05-07 02:56 24.96578 54.83429 35806 ft 519 kts 78°
2026-05-07 02:56 24.97312 54.87329 35953 ft 519 kts 78°
2026-05-07 02:57 24.98048 54.91234 36118 ft 520 kts 78°
2026-05-07 02:57 24.98775 54.95088 36290 ft 521 kts 78°
2026-05-07 02:57 24.99512 54.98997 36459 ft 521 kts 78°
2026-05-07 02:57 25.00249 55.02913 36617 ft 522 kts 78°
2026-05-07 02:58 25.00987 55.06839 36788 ft 522 kts 78°
2026-05-07 02:58 25.01726 55.10777 36835 ft 523 kts 78°
2026-05-07 02:58 25.03199 55.18650 36842 ft 524 kts 78°
2026-05-07 02:59 25.04772 55.27074 36838 ft 523 kts 78°
2026-05-07 02:59 25.06231 55.34894 36819 ft 524 kts 78°
2026-05-07 03:00 25.07701 55.42781 36825 ft 524 kts 78°
2026-05-07 03:00 25.09165 55.50667 36824 ft 524 kts 78°
2026-05-07 03:01 25.10618 55.58534 36834 ft 524 kts 78°
2026-05-07 03:01 25.12073 55.66453 36831 ft 524 kts 78°
2026-05-07 03:02 25.13521 55.74350 36829 ft 524 kts 79°
2026-05-07 03:02 25.15046 55.82250 36821 ft 523 kts 77°
2026-05-07 03:03 25.16682 55.90097 36816 ft 523 kts 77°
2026-05-07 03:03 25.18305 55.97937 36820 ft 523 kts 77°
2026-05-07 03:04 25.19901 56.05739 36808 ft 523 kts 77°
2026-05-07 03:04 25.21498 56.13597 36796 ft 523 kts 78°
2026-05-07 03:05 25.23009 56.21471 36796 ft 523 kts 78°
2026-05-07 03:05 25.24496 56.29346 36789 ft 523 kts 78°
2026-05-07 03:06 25.25980 56.37175 36785 ft 523 kts 78°
2026-05-07 03:06 25.27429 56.45047 36787 ft 521 kts 78°
2026-05-07 03:07 25.28857 56.52915 36774 ft 521 kts 79°
2026-05-07 03:07 25.29810 56.60854 36773 ft 521 kts 86°
2026-05-07 03:08 25.29930 56.68858 36777 ft 520 kts 93°
2026-05-07 03:08 25.29667 56.76797 36784 ft 520 kts 93°
2026-05-07 03:09 25.29411 56.84793 36792 ft 520 kts 93°
2026-05-07 03:09 25.29172 56.92788 36790 ft 520 kts 93°
2026-05-07 03:10 25.28934 57.00791 36799 ft 520 kts 93°
2026-05-07 03:10 25.28691 57.08732 36796 ft 520 kts 93°
2026-05-07 03:11 25.28446 57.16730 36797 ft 519 kts 92°
2026-05-07 03:11 25.28227 57.24715 36798 ft 519 kts 92°
2026-05-07 03:12 25.28007 57.32698 36792 ft 519 kts 92°
2026-05-07 03:12 25.27783 57.40632 36793 ft 519 kts 92°
2026-05-07 03:13 25.27552 57.48613 36784 ft 519 kts 92°
2026-05-07 03:13 25.27320 57.56577 36787 ft 517 kts 92°
2026-05-07 03:14 25.27081 57.64532 36787 ft 517 kts 92°
2026-05-07 03:15 25.27925 57.76340 36788 ft 517 kts 76°
2026-05-07 03:15 25.30261 57.83842 36787 ft 516 kts 63°
2026-05-07 03:16 25.33848 57.90686 36785 ft 514 kts 55°
2026-05-07 03:16 25.37812 57.97271 36784 ft 514 kts 54°
2026-05-07 03:17 25.41746 58.03827 36794 ft 514 kts 54°
2026-05-07 03:17 25.45689 58.10459 36788 ft 516 kts 54°
2026-05-07 03:18 25.49629 58.17115 36784 ft 516 kts 55°
2026-05-07 03:18 25.53559 58.23772 36784 ft 516 kts 54°
2026-05-07 03:19 25.57458 58.30385 36785 ft 516 kts 55°
2026-05-07 03:19 25.61378 58.37042 36787 ft 515 kts 55°
2026-05-07 03:20 25.65295 58.43705 36787 ft 516 kts 55°
2026-05-07 03:20 25.69207 58.50371 36794 ft 516 kts 54°
2026-05-07 03:21 25.73094 58.57000 36793 ft 516 kts 54°
2026-05-07 03:21 25.77012 58.63692 36798 ft 516 kts 54°
2026-05-07 03:22 25.80924 58.70384 36798 ft 516 kts 55°
2026-05-07 03:22 25.84831 58.77076 36798 ft 516 kts 54°
2026-05-07 03:23 25.88717 58.83746 36806 ft 518 kts 54°
2026-05-07 03:23 25.92634 58.90472 36806 ft 518 kts 54°
2026-05-07 03:24 25.96548 58.97204 36808 ft 518 kts 55°
2026-05-07 03:24 26.00447 59.03920 36817 ft 518 kts 54°
2026-05-07 03:25 26.04357 59.10670 36819 ft 518 kts 54°
2026-05-07 03:25 26.08248 59.17427 36816 ft 518 kts 55°
2026-05-07 03:26 26.12137 59.24193 36811 ft 518 kts 55°
2026-05-07 03:26 26.16027 59.30967 36824 ft 519 kts 55°
2026-05-07 03:27 26.19881 59.37691 36830 ft 518 kts 55°
2026-05-07 03:27 26.23760 59.44461 36832 ft 518 kts 55°
2026-05-07 03:28 26.27637 59.51239 36832 ft 518 kts 55°
2026-05-07 03:28 26.31509 59.58018 36855 ft 519 kts 54°
2026-05-07 03:29 26.35363 59.64779 36853 ft 520 kts 54°
2026-05-07 03:29 26.39247 59.71595 36850 ft 520 kts 54°
2026-05-07 03:30 26.43126 59.78422 36860 ft 520 kts 54°
2026-05-07 03:30 26.46994 59.85257 36865 ft 520 kts 54°
2026-05-07 03:31 26.50831 59.92047 36864 ft 520 kts 54°
2026-05-07 03:31 26.54692 59.98883 36876 ft 519 kts 54°
2026-05-07 03:32 26.58556 60.05734 36877 ft 520 kts 54°
2026-05-07 03:32 26.62409 60.12575 36883 ft 520 kts 54°
2026-05-07 03:33 26.66236 60.19381 36887 ft 520 kts 54°
2026-05-07 03:33 26.70087 60.26242 36876 ft 520 kts 54°
2026-05-07 03:34 26.73934 60.33113 36890 ft 520 kts 54°
2026-05-07 03:34 26.77778 60.39993 36887 ft 522 kts 54°
2026-05-07 03:35 26.81611 60.46857 36888 ft 523 kts 54°
2026-05-07 03:35 26.85466 60.53772 36877 ft 523 kts 54°
2026-05-07 03:36 26.89120 60.60829 36883 ft 526 kts 62°
2026-05-07 03:36 26.91711 60.68533 36890 ft 530 kts 73°
2026-05-07 03:37 26.93009 60.76685 36900 ft 532 kts 84°
2026-05-07 03:37 26.93251 60.84952 36898 ft 534 kts 89°
2026-05-07 03:38 26.93344 60.93290 36899 ft 534 kts 89°
2026-05-07 03:38 26.93463 61.01624 36907 ft 534 kts 88°
2026-05-07 03:39 26.93598 61.09957 36909 ft 534 kts 88°
2026-05-07 03:39 26.93737 61.18226 36894 ft 534 kts 88°
2026-05-07 03:40 26.93872 61.26543 36910 ft 532 kts 88°
2026-05-07 03:40 26.94002 61.34841 36923 ft 532 kts 88°
2026-05-07 03:41 26.94126 61.43145 36920 ft 532 kts 88°
2026-05-07 03:41 26.94246 61.51402 36920 ft 533 kts 88°
2026-05-07 03:42 26.94362 61.59722 36918 ft 533 kts 88°
2026-05-07 03:42 26.94473 61.68035 36916 ft 533 kts 88°
2026-05-07 03:43 26.94579 61.76351 36916 ft 533 kts 88°
2026-05-07 03:43 26.94678 61.84611 36917 ft 533 kts 88°
2026-05-07 03:44 26.94774 61.92924 36914 ft 533 kts 88°
2026-05-07 03:44 26.94864 62.01222 36907 ft 533 kts 88°
2026-05-07 03:45 26.94951 62.09536 36906 ft 533 kts 88°
2026-05-07 03:45 26.95033 62.17795 36902 ft 533 kts 88°
2026-05-07 03:46 26.95108 62.26113 36911 ft 533 kts 88°
2026-05-07 03:46 26.95179 62.34452 36908 ft 534 kts 88°
2026-05-07 03:47 26.95247 62.42784 36910 ft 534 kts 88°
2026-05-07 03:47 26.95310 62.51110 36895 ft 533 kts 88°
2026-05-07 03:48 26.95366 62.59366 36912 ft 532 kts 88°
2026-05-07 03:48 26.95418 62.67675 36898 ft 532 kts 88°
2026-05-07 03:49 26.95466 62.75986 36901 ft 532 kts 88°
2026-05-07 03:49 26.95508 62.84290 36902 ft 532 kts 88°
2026-05-07 03:50 26.95545 62.92548 36894 ft 533 kts 88°
2026-05-07 03:50 26.95578 63.00862 36893 ft 533 kts 88°
2026-05-07 03:51 26.95608 63.09196 36886 ft 533 kts 88°
2026-05-07 03:51 26.95630 63.17524 36879 ft 534 kts 88°
2026-05-07 03:52 26.95650 63.25812 36879 ft 534 kts 88°
2026-05-07 03:52 26.95656 63.34152 36875 ft 535 kts 89°
2026-05-07 03:53 26.95634 63.42501 36871 ft 535 kts 89°
2026-05-07 03:53 26.95605 63.50846 36870 ft 535 kts 89°
2026-05-07 03:54 26.95577 63.59147 36869 ft 535 kts 89°
2026-05-07 03:54 26.95545 63.67509 36871 ft 535 kts 89°
2026-05-07 03:55 26.95507 63.75868 36880 ft 535 kts 88°
2026-05-07 03:55 26.95470 63.82809 36868 ft 536 kts 88°
2026-05-07 03:56 26.95419 63.92577 36880 ft 535 kts 89°
2026-05-07 03:56 26.95366 64.00875 36886 ft 535 kts 88°
2026-05-07 03:57 26.96202 64.09101 36886 ft 528 kts 71°
2026-05-07 03:57 26.98339 64.15451 36891 ft 520 kts 57°
2026-05-07 03:57 27.00888 64.19998 36890 ft 512 kts 46°
2026-05-07 03:58 27.03201 64.23007 36895 ft 506 kts 40°
2026-05-07 03:58 27.08154 64.28621 36897 ft 505 kts 39°
2026-05-07 03:59 27.12284 64.33266 36888 ft 505 kts 39°
2026-05-07 03:59 27.18023 64.39805 36896 ft 505 kts 39°
2026-05-07 04:00 27.22940 64.45447 36894 ft 504 kts 39°
2026-05-07 04:00 27.27017 64.50136 36887 ft 504 kts 39°
2026-05-07 04:01 27.31930 64.55792 36887 ft 505 kts 39°
2026-05-07 04:01 27.36839 64.61458 36889 ft 505 kts 39°
2026-05-07 04:02 27.41707 64.67084 36873 ft 505 kts 39°
2026-05-07 04:02 27.46631 64.72780 36875 ft 505 kts 39°
2026-05-07 04:03 27.51533 64.78458 36878 ft 505 kts 39°
2026-05-07 04:03 27.56430 64.84138 36862 ft 505 kts 39°
2026-05-07 04:04 27.61295 64.89790 36864 ft 505 kts 39°
2026-05-07 04:04 27.66190 64.95483 36865 ft 505 kts 39°
2026-05-07 04:05 27.71083 65.01188 36859 ft 504 kts 39°
2026-05-07 04:05 27.75964 65.06884 36861 ft 504 kts 39°
2026-05-07 04:06 27.80816 65.12547 36840 ft 505 kts 39°
2026-05-07 04:06 27.85695 65.18250 36841 ft 505 kts 39°
2026-05-07 04:07 27.90576 65.23965 36854 ft 505 kts 39°
2026-05-07 04:07 27.95449 65.29679 36841 ft 505 kts 39°
2026-05-07 04:08 28.00281 65.35358 36843 ft 504 kts 39°
2026-05-07 04:08 28.05151 65.41081 36853 ft 504 kts 39°
2026-05-07 04:09 28.10010 65.46805 36845 ft 505 kts 39°